"Pseudo-MPEC" for P22jBOA

Created 2026 Jan 13 19:35:10 UT using Find_Orb

Click here for an explanation of pseudo-MPECs

 
 Astrometry: 
     P22jBOA* C2025 12 26.34096105 51 28.545+47 35 59.30   ~CQKK 22.16wXNEOCPF52
     P22jBOA  C2025 12 26.35920805 51 28.048+47 35 58.53   ~CQKK 22.54wXNEOCPF52
     P22jBOA  C2025 12 26.36835505 51 27.769+47 35 58.10   ~CQKK 22.38wXNEOCPF52

Station data:
(F52) Pan-STARRS 2, Haleakala  (N20.707382 W156.255910)  US/Hawaii.
   Observers J. Herman, T. Lowe, P. Minguez, A. Schultz, I. Smith. Measurers
   K. Chambers, T. de Boer, J. Fairlamb, H. Gao, M. Huber, C.-C. Lin, E.
   Magnier, Y. Ramanjooloo, R. Wainscoat, R. Weryk. 1.8-m Ritchey-Chrétien +
   CCD.

Orbital elements:  P22jBOA
   Perihelion 2031 Oct 22.867236 +/- 1890 TT = 20:48:49.2 (JD 2463162.367236)
Epoch 2025 Dec 26.0 TT = JDT 2461035.5                           AutoNEOCP
M 297.768505502 +/- 60              (J2000 ecliptic)
n   0.029259698 +/- 0.0638          Peri.  217.115223 +/- 110
a  10.43012426 +/- 15.2             Node   329.601631 +/- 48
e   0.32599800 +/- 0.228            Incl.   24.725498 +/- 45
P  33.68482                H 12.22  G  0.15   U 10.9  SR
q 7.029924585 +/- 3.6    Q 13.83032395 +/- 2382
From 3 observations 2025 Dec. 26 (39.4 min); mean residual 0".07
Residuals in arcseconds: 
251226 F52  .04-  .01-    251226 F52  .13+  .02+    251226 F52  .09-  .01-    

Ephemerides (geocentric):
Date (UTC) HH   RA             Dec           delta  r     elong  mag " sig PA
---- --------  ------------   ------------  ------ ------ -----  --- --------
2026 01 13 20  05 43 29.199   +47 13 14.39  9.0220 9.8444 145.1 22.3 7002  44
2026 01 13 21  05 43 28.225   +47 13 10.20  9.0222 9.8443 145.0 22.3 7042  44
2026 01 13 22  05 43 27.252   +47 13 06.01  9.0224 9.8443 145.0 22.3 7082  43
2026 01 13 23  05 43 26.280   +47 13 01.81  9.0226 9.8442 145.0 22.3 7122  43
2026 01 14 00  05 43 25.308   +47 12 57.61  9.0228 9.8441 144.9 22.3 7162  43
2026 01 14 01  05 43 24.337   +47 12 53.40  9.0230 9.8440 144.9 22.3 7203  43
2026 01 14 02  05 43 23.366   +47 12 49.19  9.0233 9.8440 144.9 22.3 7244  43
2026 01 14 03  05 43 22.396   +47 12 44.97  9.0235 9.8439 144.8 22.3 7285  43
2026 01 14 04  05 43 21.427   +47 12 40.75  9.0237 9.8438 144.8 22.3 7326  43
2026 01 14 05  05 43 20.459   +47 12 36.52  9.0239 9.8437 144.8 22.3 7368  43
2026 01 14 06  05 43 19.491   +47 12 32.29  9.0241 9.8437 144.7 22.3 7409  43
2026 01 14 07  05 43 18.523   +47 12 28.06  9.0243 9.8436 144.7 22.3 7452  43
2026 01 14 08  05 43 17.557   +47 12 23.82  9.0245 9.8435 144.7 22.3 7494  43
2026 01 14 09  05 43 16.591   +47 12 19.58  9.0247 9.8434 144.6 22.3 7537  43
2026 01 14 10  05 43 15.625   +47 12 15.33  9.0249 9.8434 144.6 22.3 7580  43
2026 01 14 11  05 43 14.660   +47 12 11.08  9.0252 9.8433 144.6 22.3 7623  43
2026 01 14 12  05 43 13.696   +47 12 06.82  9.0254 9.8432 144.5 22.3 7666  43
2026 01 14 13  05 43 12.733   +47 12 02.56  9.0256 9.8431 144.5 22.3 7710  43
2026 01 14 14  05 43 11.770   +47 11 58.29  9.0258 9.8431 144.5 22.3 7754  42
2026 01 14 15  05 43 10.808   +47 11 54.02  9.0260 9.8430 144.5 22.3 7798  42
2026 01 14 16  05 43 09.846   +47 11 49.75  9.0262 9.8429 144.4 22.3 7843  42
2026 01 14 17  05 43 08.885   +47 11 45.47  9.0265 9.8428 144.4 22.3 7888  42
2026 01 14 18  05 43 07.925   +47 11 41.18  9.0267 9.8428 144.4 22.3 7933  42
2026 01 14 19  05 43 06.965   +47 11 36.89  9.0269 9.8427 144.3 22.3 7978  42
2026 01 14 20  05 43 06.006   +47 11 32.60  9.0271 9.8426 144.3 22.3 8024  42
2026 01 14 21  05 43 05.048   +47 11 28.30  9.0273 9.8425 144.3 22.3 8070  42
2026 01 14 22  05 43 04.090   +47 11 24.00  9.0275 9.8425 144.2 22.3 8116  42
2026 01 14 23  05 43 03.133   +47 11 19.69  9.0278 9.8424 144.2 22.3 8163  42
2026 01 15 00  05 43 02.177   +47 11 15.38  9.0280 9.8423 144.2 22.3 8210  42
2026 01 15 01  05 43 01.221   +47 11 11.07  9.0282 9.8422 144.1 22.3 8257  42
2026 01 15 02  05 43 00.266   +47 11 06.75  9.0284 9.8422 144.1 22.3 8305  42
2026 01 15 03  05 42 59.312   +47 11 02.42  9.0286 9.8421 144.1 22.3 8352  42
2026 01 15 04  05 42 58.358   +47 10 58.10  9.0289 9.8420 144.0 22.3 8401  42
2026 01 15 05  05 42 57.405   +47 10 53.76  9.0291 9.8419 144.0 22.3 8449  41
2026 01 15 06  05 42 56.452   +47 10 49.43  9.0293 9.8419 144.0 22.3 8498  41
2026 01 15 07  05 42 55.500   +47 10 45.08  9.0295 9.8418 143.9 22.3 8547  41
2026 01 15 08  05 42 54.549   +47 10 40.74  9.0298 9.8417 143.9 22.3 8596  41
2026 01 15 09  05 42 53.599   +47 10 36.39  9.0300 9.8416 143.9 22.3 8646  41
2026 01 15 10  05 42 52.649   +47 10 32.03  9.0302 9.8416 143.8 22.3 8696  41
2026 01 15 11  05 42 51.700   +47 10 27.67  9.0304 9.8415 143.8 22.3 8747  41
2026 01 15 12  05 42 50.751   +47 10 23.31  9.0307 9.8414 143.8 22.3 8797  41
2026 01 15 13  05 42 49.804   +47 10 18.94  9.0309 9.8413 143.7 22.3 8848  41
2026 01 15 14  05 42 48.856   +47 10 14.57  9.0311 9.8413 143.7 22.3 8900  41
2026 01 15 15  05 42 47.910   +47 10 10.19  9.0313 9.8412 143.7 22.3 8952  41
2026 01 15 16  05 42 46.964   +47 10 05.81  9.0316 9.8411 143.6 22.3 9004  41
2026 01 15 17  05 42 46.019   +47 10 01.42  9.0318 9.8410 143.6 22.3 9056  41
2026 01 15 18  05 42 45.074   +47 09 57.03  9.0320 9.8409 143.6 22.3 9109  41
2026 01 15 19  05 42 44.131   +47 09 52.63  9.0322 9.8409 143.5 22.3 9162  40